Weather History for KCUL - September, 2013

Change the Weather History Date:

Thursday, September 26, 2013

  Actual Average (KEVV) Record (KEVV)
Temperature  
Mean Temperature 70 °F 65 °F  
Max Temperature 84 °F 77 °F 94 °F (1897)
Min Temperature 57 °F 52 °F 37 °F (2001)
Degree Days  
Heating Degree Days 0 3  
Month to date heating degree days 29  
Since 1 July heating degree days 30  
Cooling Degree Days 5 3  
Month to date cooling degree days 156  
Year to date cooling degree days 1355  
Growing Degree Days 20 (Base 50)    
Moisture  
Dew Point 59 °F    
Average Humidity 74    
Maximum Humidity 96    
Minimum Humidity 39    
Precipitation  
Precipitation 0.00 in 0.11 in 1.64 in (2002)
Month to date precipitation 2.63  
Year to date precipitation 33.55  
Snow  
Snow 0.00 in 0.00 in - ()
Month to date snowfall 0.0  
Since 1 July snowfall 0.0  
Since 1 September snowfall 0.0  
Snow Depth -    
Sea Level Pressure  
Sea Level Pressure 29.98 in    
Wind  
Wind Speed 1 mph (ENE)    
Max Wind Speed 8 mph    
Max Gust Speed -    
Visibility 8 miles    
Events      
T = Trace of Precipitation, MM = Missing Value Source: NWS Daily Summary

Daily Weather History Graph

Daily Weather History Graph

Search for Another Location

Airport or City:

Trip Planner

Search our weather history database for the weather conditions in past years. The results will help you decide how hot, cold, wet, or windy it might be!

Date:

Astronomy

Sep. 26, 2013 Rise Set
Actual Time 6:43 AM CDT 6:42 PM CDT
Civil Twilight 6:17 AM CDT 7:09 PM CDT
Nautical Twilight 5:47 AM CDT 7:39 PM CDT
Astronomical Twilight 5:16 AM CDT 8:10 PM CDT
Moon 11:45 PM CDT (9/26) 1:31 PM CDT (9/26)
Length of Visible Light 12h 51m
Length of Day
11h 58m
Waning Gibbous, 54% of the Moon is Illuminated
Sep 26
Waning Gibbous
Sep 26
Last Quarter
Oct 4
New
Oct 11
First Quarter
Oct 18
Full

Hourly Weather History & Observations

Time (CDT) Temp. Heat Index Dew Point Humidity Pressure Visibility Wind Dir Wind Speed Gust Speed Precip Events Conditions
12:15 AM 63.0 °F - 61.3 °F 94% 29.89 in 5.0 mi Calm Calm - N/A   Clear
12:35 AM 62.4 °F - 61.0 °F 95% 29.89 in 7.0 mi Calm Calm - N/A   Clear
12:55 AM 61.7 °F - 60.1 °F 94% 29.89 in 7.0 mi Calm Calm - N/A   Clear
1:15 AM 61.9 °F - 60.4 °F 95% 29.89 in 7.0 mi Calm Calm - N/A   Clear
1:35 AM 61.7 °F - 60.3 °F 95% 29.90 in 5.0 mi Calm Calm - N/A   Clear
1:55 AM 61.7 °F - 60.1 °F 94% 29.90 in 7.0 mi Calm Calm - N/A   Clear
2:15 AM 60.8 °F - 59.2 °F 94% 29.90 in 7.0 mi Calm Calm - N/A   Clear
2:35 AM 59.7 °F - 58.1 °F 94% 29.90 in 0.8 mi Calm Calm - N/A   Mist
2:55 AM 60.4 °F - 59.2 °F 96% 29.91 in 2.5 mi Calm Calm - N/A   Clear
3:15 AM 60.8 °F - 59.5 °F 96% 29.91 in 5.0 mi Calm Calm - N/A   Clear
3:35 AM 60.4 °F - 59.0 °F 95% 29.91 in 5.0 mi Calm Calm - N/A   Clear
3:55 AM 58.6 °F - 57.4 °F 96% 29.92 in 1.0 mi Calm Calm - N/A   Mist
4:15 AM 59.4 °F - 58.1 °F 96% 29.93 in 1.0 mi North 4.6 mph - N/A   Mist
4:35 AM 59.4 °F - 58.1 °F 96% 29.93 in 3.0 mi NNE 4.6 mph - N/A   Clear
4:55 AM 59.9 °F - 58.6 °F 96% 29.94 in 5.0 mi Calm Calm - N/A   Clear
5:15 AM 59.4 °F - 58.1 °F 96% 29.94 in 4.0 mi Calm Calm - N/A   Clear
5:35 AM 59.2 °F - 57.9 °F 96% 29.95 in 2.0 mi Calm Calm - N/A   Clear
5:55 AM 59.2 °F - 58.1 °F 96% 29.96 in 1.8 mi Calm Calm - N/A   Mist
6:15 AM 59.2 °F - 57.9 °F 96% 29.96 in 1.2 mi Calm Calm - N/A   Mist
6:35 AM 58.5 °F - 57.2 °F 96% 29.97 in 5.0 mi Calm Calm - N/A   Clear
6:55 AM 57.6 °F - 56.3 °F 96% 29.97 in 2.0 mi Calm Calm - N/A   Clear
7:15 AM 57.7 °F - 56.5 °F 96% 29.98 in 1.8 mi Calm Calm - N/A   Mist
7:35 AM 59.0 °F - 57.7 °F 96% 29.99 in 3.0 mi Calm Calm - N/A   Clear
7:55 AM 61.3 °F - 60.1 °F 96% 29.99 in 2.5 mi Calm Calm - N/A   Clear
8:15 AM 63.5 °F - 62.4 °F 96% 30.00 in 4.0 mi Calm Calm - N/A   Clear
8:35 AM 66.0 °F - 62.8 °F 89% 30.01 in 5.0 mi Calm Calm - N/A   Clear
8:55 AM 67.6 °F - 63.0 °F 85% 30.01 in 7.0 mi Calm Calm - N/A   Clear
9:15 AM 68.9 °F - 64.0 °F 84% 30.02 in 7.0 mi Calm Calm - N/A   Clear
9:35 AM 71.8 °F - 64.0 °F 77% 30.02 in 10.0 mi Calm Calm - N/A   Clear
9:55 AM 73.0 °F - 65.3 °F 77% 30.02 in 10.0 mi Calm Calm - N/A   Clear
10:15 AM 75.0 °F - 65.5 °F 72% 30.02 in 10.0 mi Calm Calm - N/A   Clear
10:35 AM 77.0 °F - 64.2 °F 65% 30.02 in 10.0 mi East 3.5 mph - N/A   Clear
10:55 AM 78.1 °F - 63.1 °F 60% 30.02 in 10.0 mi East 5.8 mph - N/A   Clear
11:15 AM 79.0 °F - 61.9 °F 56% 30.02 in 10.0 mi ENE 4.6 mph - N/A   Clear
11:35 AM 80.1 °F 81.1 °F 61.7 °F 53% 30.02 in 10.0 mi ESE 5.8 mph - N/A   Clear
11:55 AM 80.8 °F 82.0 °F 62.8 °F 54% 30.01 in 10.0 mi NE 4.6 mph - N/A   Scattered Clouds
12:15 PM 81.7 °F 82.3 °F 60.8 °F 49% 30.01 in 10.0 mi ENE 3.5 mph - N/A   Mostly Cloudy
12:35 PM 81.5 °F 81.1 °F 55.9 °F 41% 30.01 in 10.0 mi East 4.6 mph - N/A   Scattered Clouds
12:55 PM 82.6 °F 82.5 °F 58.5 °F 44% 30.01 in 10.0 mi SSE 4.6 mph - N/A   Scattered Clouds
1:15 PM 83.1 °F 82.9 °F 58.3 °F 43% 30.00 in 10.0 mi East 8.1 mph - N/A   Mostly Cloudy
1:35 PM 81.5 °F 81.8 °F 59.2 °F 47% 30.00 in 10.0 mi ENE 5.8 mph - N/A   Scattered Clouds
1:55 PM 83.1 °F 82.4 °F 56.7 °F 40% 29.99 in 10.0 mi Calm Calm - N/A   Clear
2:15 PM 82.6 °F 82.2 °F 57.4 °F 42% 29.99 in 10.0 mi SE 4.6 mph - N/A   Clear
2:35 PM 83.3 °F 82.8 °F 57.2 °F 41% 29.99 in 10.0 mi ENE 8.1 mph - N/A   Clear
2:55 PM 83.3 °F 82.5 °F 56.1 °F 39% 29.99 in 10.0 mi SE 3.5 mph - N/A   Clear
3:15 PM 83.7 °F 83.0 °F 57.0 °F 40% 29.98 in 10.0 mi ESE 4.6 mph - N/A   Clear
3:35 PM 83.5 °F 82.8 °F 56.5 °F 40% 29.98 in 10.0 mi East 4.6 mph - N/A   Clear
3:55 PM 83.7 °F 82.8 °F 56.5 °F 39% 29.97 in 10.0 mi East 4.6 mph - N/A   Clear
4:15 PM 83.1 °F 82.4 °F 56.5 °F 40% 29.98 in 10.0 mi NE 3.5 mph - N/A   Clear
4:35 PM 83.5 °F 83.1 °F 57.9 °F 42% 29.98 in 10.0 mi ESE 3.5 mph - N/A   Clear
4:55 PM 83.1 °F 82.6 °F 57.0 °F 41% 29.98 in 10.0 mi ESE 4.6 mph - N/A   Clear
5:15 PM 81.7 °F 81.8 °F 58.6 °F 45% 29.98 in 10.0 mi East 4.6 mph - N/A   Clear
5:35 PM 80.6 °F 80.7 °F 56.8 °F 44% 29.99 in 10.0 mi ENE 3.5 mph - N/A   Clear
5:55 PM 79.0 °F - 59.2 °F 51% 29.99 in 10.0 mi ENE 4.6 mph - N/A   Clear
6:15 PM 76.3 °F - 59.0 °F 55% 29.99 in 10.0 mi NE 5.8 mph - N/A   Clear
6:35 PM 73.9 °F - 59.0 °F 59% 29.99 in 10.0 mi NE 5.8 mph - N/A   Clear
6:55 PM 72.1 °F - 58.6 °F 62% 29.99 in 10.0 mi NE 3.5 mph - N/A   Clear
7:15 PM 69.8 °F - 58.1 °F 66% 29.99 in 10.0 mi ENE 4.6 mph - N/A   Clear
7:35 PM 68.5 °F - 57.7 °F 68% 30.00 in 10.0 mi NE 3.5 mph - N/A   Clear
7:55 PM 65.5 °F - 57.9 °F 77% 30.00 in 10.0 mi Calm Calm - N/A   Clear
8:15 PM 66.4 °F - 58.1 °F 75% 30.01 in 10.0 mi Calm Calm - N/A   Clear
8:35 PM 65.7 °F - 58.1 °F 77% 30.01 in 10.0 mi Calm Calm - N/A   Clear
8:55 PM 64.4 °F - 57.9 °F 79% 30.02 in 10.0 mi Calm Calm - N/A   Clear
9:15 PM 63.3 °F - 57.6 °F 81% 30.03 in 10.0 mi Calm Calm - N/A   Clear
9:35 PM 62.1 °F - 57.4 °F 85% 30.03 in 10.0 mi Calm Calm - N/A   Clear
9:55 PM 61.5 °F - 57.9 °F 88% 30.03 in 10.0 mi Calm Calm - N/A   Clear
10:15 PM 60.8 °F - 57.9 °F 90% 30.03 in 10.0 mi Calm Calm - N/A   Clear
10:35 PM 60.8 °F - 58.1 °F 91% 30.04 in 10.0 mi Calm Calm - N/A   Clear
10:55 PM 58.5 °F - 56.1 °F 92% 30.04 in 10.0 mi Calm Calm - N/A   Clear
11:15 PM 58.1 °F - 55.6 °F 91% 30.04 in 7.0 mi Calm Calm - N/A   Clear
11:35 PM 57.9 °F - 55.4 °F 91% 30.04 in 7.0 mi Calm Calm - N/A   Clear
11:55 PM 58.1 °F - 55.4 °F 91% 30.04 in 10.0 mi Calm Calm - N/A   Clear